Weather reports worldwide

Advertisment
New Iberia, la, United States of America (2072047): temperature & dewpoint: 17.07.2019 15:00:00 - 23.07.2019 15:00:00 (CDT)New Iberia, la, United States of America (2072047): wind speed: 17.07.2019 15:00:00 - 23.07.2019 15:00:00 (CDT)New Iberia, la, United States of America (2072047): wind direction: 17.07.2019 15:00:00 - 23.07.2019 15:00:00 (CDT)New Iberia, la, United States of America (2072047): reduced air pressure: 17.07.2019 15:00:00 - 23.07.2019 15:00:00 (CDT)New Iberia, la, United States of America (2072047): visibility: 17.07.2019 15:00:00 - 23.07.2019 15:00:00 (CDT)New Iberia, la, United States of America (2072047): precipitation: 17.07.2019 15:00:00 - 23.07.2019 15:00:00 (CDT)
Date & Time tt [°C] td [°C] ff [km/h] ff [kn] dd ppp [hPa] vv [km] rr [mm]
23.07.2019 15:00:00 26,7 25,0 18 10 NNW 1013,5 16 0,0
23.07.2019 14:00:00 25,6 25,6 11 6 N 1014,1 16 0,5
23.07.2019 13:00:00 25,0 25,0 15 8 N 1014,4 16 0,3
23.07.2019 12:00:00 23,9 23,9 8 4 WNW 1014,9 16 0,0
23.07.2019 11:00:00 23,9 23,9 24 13 WNW 1015,5 2,4 8,6
23.07.2019 10:00:00 25,0 24,4 13 7 NW 1015,3 16 -
23.07.2019 09:00:00 25,0 24,4 13 7 NW 1014,9 16 -
23.07.2019 08:00:00 25,0 25,0 9 5 WSW 1014,4 16 -
23.07.2019 07:00:00 24,4 24,4 0 0 N 1014,4 16 -
23.07.2019 06:00:00 23,9 23,9 0 0 N 1014,3 16 -
23.07.2019 05:00:00 23,9 23,9 0 0 N 1013,9 16 -
23.07.2019 04:00:00 24,4 24,4 8 4 W 1013,9 16 -
23.07.2019 03:00:00 25,0 25,0 8 4 WSW 1014,6 16 -
23.07.2019 02:00:00 24,4 24,4 5 3 SSW 1014,6 16 -
23.07.2019 01:00:00 24,4 24,4 5 3 S 1014,4 16 -
23.07.2019 00:00:00 24,4 24,4 5 3 SSE 1014,2 16 -
22.07.2019 23:00:00 25,0 25,0 0 0 N 1014,7 16 -
22.07.2019 22:00:00 25,6 25,0 0 0 N 1014,8 16 -
22.07.2019 21:00:00 26,1 25,6 5 3 NW 1014,8 16 -
22.07.2019 20:00:00 26,7 25,0 8 4 W 1014,1 16 -
22.07.2019 19:00:00 28,3 23,9 9 5 WSW 1013,8 16 -
22.07.2019 18:00:00 28,3 23,9 15 8 SW 1014,5 16 -
22.07.2019 17:00:00 28,3 24,4 13 7 WSW 1014,4 16 -
22.07.2019 16:00:00 27,2 24,4 15 8 S 1014,8 16 0,0
22.07.2019 15:00:00 26,7 23,9 9 5 WNW 1015,5 16 0,0
22.07.2019 14:00:00 26,1 23,9 9 5 NNE 1015,9 16 0,0
22.07.2019 13:00:00 27,2 25,6 13 7 SSW 1016,3 16 0,0
22.07.2019 12:00:00 25,6 25,0 9 5 S 1016,9 16 0,0
22.07.2019 11:00:00 24,4 24,4 8 4 S 1016,9 16 0,0
22.07.2019 10:00:00 23,9 23,9 8 4 - 1016,5 4,8 2,0
22.07.2019 09:00:00 27,8 24,4 9 5 SW 1016,4 16 -
22.07.2019 08:00:00 26,7 25,0 0 0 N 1016,3 16 -
22.07.2019 07:00:00 23,9 23,9 0 0 N 1015,8 16 -
22.07.2019 06:00:00 23,3 23,3 0 0 N 1015,4 16 -
22.07.2019 05:00:00 23,3 23,3 0 0 N 1015,2 16 -
22.07.2019 04:00:00 23,3 23,3 0 0 N 1014,9 16 -
22.07.2019 03:00:00 23,3 23,3 0 0 N 1014,9 16 -
22.07.2019 02:00:00 23,3 23,3 5 3 ESE 1015,0 16 -
22.07.2019 01:00:00 23,9 23,3 0 0 N 1015,1 16 -
22.07.2019 00:00:00 23,9 23,9 0 0 N 1015,1 16 -
21.07.2019 23:00:00 24,4 23,9 0 0 N 1015,3 16 -
21.07.2019 22:00:00 24,4 23,9 8 4 SE 1015,0 16 -
21.07.2019 21:00:00 24,4 23,9 8 4 S 1014,7 16 -
21.07.2019 20:00:00 24,4 23,3 8 4 E 1014,8 16 -
21.07.2019 19:00:00 25,0 22,8 13 7 NE 1015,5 16 -
21.07.2019 18:00:00 25,6 23,9 21 11 ENE 1015,8 16 0,0
21.07.2019 17:00:00 26,1 23,9 22 12 NE 1016,0 16 -
21.07.2019 16:00:00 29,4 22,8 8 4 NW 1015,6 16 -
21.07.2019 15:00:00 30,0 24,4 15 8 WSW 1015,5 16 -
21.07.2019 14:00:00 28,9 25,6 16 9 WNW 1016,2 16 -
21.07.2019 13:00:00 30,6 25,6 18 10 SW 1016,4 16 -
21.07.2019 12:00:00 29,4 23,9 13 7 S 1016,7 16 -
21.07.2019 11:00:00 29,4 24,4 13 7 SSW 1016,9 16 -
21.07.2019 10:00:00 27,8 24,4 11 6 SSE 1016,7 16 -
21.07.2019 09:00:00 26,1 24,4 0 0 N 1017,0 16 -
21.07.2019 08:00:00 25,6 24,4 8 4 S 1016,3 16 -
21.07.2019 07:00:00 24,4 23,9 8 4 SE 1016,0 16 -
21.07.2019 06:00:00 23,9 23,9 0 0 N 1016,0 16 -
21.07.2019 05:00:00 24,4 24,4 5 3 WSW 1015,8 16 -
21.07.2019 04:00:00 25,0 25,0 8 4 NE 1015,4 16 -
21.07.2019 03:00:00 25,0 25,0 0 0 N 1015,1 16 -
21.07.2019 02:00:00 25,0 25,0 8 4 WSW 1015,5 16 -
21.07.2019 01:00:00 24,4 24,4 11 6 ESE 1015,5 16 -
21.07.2019 00:00:00 24,4 24,4 9 5 SE 1016,0 16 -
20.07.2019 23:00:00 25,0 24,4 9 5 SSE 1015,5 16 -
20.07.2019 22:00:00 25,0 25,0 11 6 SE 1015,5 16 -
20.07.2019 21:00:00 26,1 25,0 5 3 SE 1015,9 16 -
20.07.2019 20:00:00 26,7 24,4 8 4 SE 1015,4 16 -
20.07.2019 19:00:00 27,2 26,1 8 4 ESE 1015,6 16 0,0
20.07.2019 18:00:00 27,2 25,0 9 5 ESE 1015,3 16 0,0
20.07.2019 17:00:00 27,8 23,9 11 6 ESE 1015,8 16 -
20.07.2019 16:00:00 30,0 25,0 18 10 SSE 1015,7 16 -
20.07.2019 15:00:00 32,2 25,0 15 8 SW 1015,4 16 -
20.07.2019 14:00:00 32,2 25,0 5 3 - 1016,3 16 0,0
20.07.2019 13:00:00 32,2 23,9 9 5 SSW 1017,0 16 -
20.07.2019 12:00:00 31,1 25,0 9 5 S 1017,1 16 -
20.07.2019 11:00:00 31,1 25,0 0 0 N 1017,5 16 -
20.07.2019 10:00:00 30,0 25,0 8 4 S 1017,6 16 -
20.07.2019 09:00:00 28,3 26,7 5 3 S 1017,9 16 -
20.07.2019 08:00:00 26,7 26,1 0 0 N 1017,6 16 -
20.07.2019 07:00:00 24,4 24,4 0 0 N 1017,0 16 0,0
20.07.2019 06:00:00 24,4 24,4 0 0 N 1016,7 16 -
20.07.2019 05:00:00 24,4 24,4 0 0 N 1016,2 16 -
20.07.2019 04:00:00 24,4 24,4 0 0 N 1015,8 16 -
20.07.2019 03:00:00 25,0 25,0 0 0 N 1015,7 16 -
20.07.2019 02:00:00 25,0 25,0 0 0 N 1015,8 16 -
20.07.2019 01:00:00 25,0 25,0 5 3 SE 1016,4 16 -
20.07.2019 00:00:00 25,0 25,0 0 0 N 1016,7 16 -
19.07.2019 23:00:00 25,0 24,4 5 3 ESE 1016,8 16 -
19.07.2019 22:00:00 25,6 25,0 0 0 N 1017,0 16 -
19.07.2019 21:00:00 25,6 24,4 5 3 SSE 1017,1 16 0,3
19.07.2019 20:00:00 25,0 23,3 5 3 SSE 1016,7 16 0,3
19.07.2019 19:00:00 27,8 26,7 0 0 N 1016,3 16 0,0
19.07.2019 18:00:00 27,2 26,1 5 3 ESE 1016,4 16 0,5
19.07.2019 17:00:00 25,6 25,0 0 0 N 1017,1 16 0,3
19.07.2019 16:00:00 28,9 25,0 11 6 - 1017,4 16 -
19.07.2019 15:00:00 31,1 25,6 15 8 S 1018,0 16 -
19.07.2019 14:00:00 32,2 25,6 16 9 SSW 1017,7 16 -
19.07.2019 13:00:00 31,1 25,6 0 0 N 1018,4 16 0,0
19.07.2019 12:00:00 30,6 26,1 8 4 ESE 1019,0 16 -
19.07.2019 11:00:00 30,0 26,1 8 4 ESE 1019,0 16 0,3
19.07.2019 10:00:00 28,3 26,7 5 3 S 1018,8 16 0,8
19.07.2019 09:00:00 29,4 26,7 8 4 S 1018,4 16 -
19.07.2019 08:00:00 27,2 26,7 5 3 SE 1017,8 16 -
19.07.2019 07:00:00 25,6 25,6 5 3 ESE 1017,2 16 -
19.07.2019 06:00:00 25,0 25,0 0 0 N 1016,7 8 -
19.07.2019 05:00:00 25,0 25,0 0 0 N 1016,2 13 -
19.07.2019 04:00:00 24,4 24,4 5 3 SSE 1016,1 16 -
19.07.2019 03:00:00 25,6 25,6 5 3 ESE 1016,5 16 -
19.07.2019 02:00:00 25,6 25,0 5 3 SE 1016,8 16 -
19.07.2019 01:00:00 25,6 25,6 5 3 SSE 1016,9 16 -
19.07.2019 00:00:00 26,1 25,6 5 3 SE 1017,4 16 -
18.07.2019 23:00:00 26,1 25,6 5 3 S 1017,5 16 -
18.07.2019 22:00:00 26,7 25,6 0 0 N 1017,3 16 -
18.07.2019 21:00:00 27,2 25,6 9 5 S 1016,6 16 -
18.07.2019 20:00:00 28,3 26,1 9 5 S 1016,7 16 -
18.07.2019 19:00:00 29,4 25,0 16 9 S 1016,4 16 -
18.07.2019 18:00:00 31,1 24,4 18 10 S 1016,1 16 -
18.07.2019 17:00:00 32,8 24,4 16 9 SSW 1016,7 16 -
18.07.2019 16:00:00 32,8 24,4 22 12 SW 1016,9 16 -
18.07.2019 15:00:00 32,8 25,0 21 11 S 1017,3 16 -
18.07.2019 14:00:00 31,7 26,1 15 8 S 1018,0 16 -
18.07.2019 13:00:00 32,2 27,2 18 10 S 1018,6 16 -
18.07.2019 12:00:00 31,7 24,4 11 6 SSW 1018,8 16 -
18.07.2019 11:00:00 32,2 25,6 11 6 S 1018,8 16 -
18.07.2019 10:00:00 30,0 26,7 8 4 WSW 1018,6 16 -
18.07.2019 09:00:00 28,9 27,2 - - - 1018,6 16 -
18.07.2019 08:00:00 27,8 26,7 0 0 N 1018,6 16 -
18.07.2019 07:00:00 26,1 26,1 - - - 1018,6 16 -
18.07.2019 06:00:00 26,1 25,6 0 0 N 1018,2 16 0,0
18.07.2019 05:00:00 25,6 25,6 0 0 N 1017,9 16 -
18.07.2019 04:00:00 25,0 25,0 9 5 SE 1017,8 16 -
18.07.2019 03:00:00 25,6 25,6 8 4 SE 1018,1 16 -
18.07.2019 02:00:00 25,6 25,6 8 4 SE 1018,2 16 -
18.07.2019 01:00:00 25,6 25,6 5 3 SSE 1018,2 16 -
18.07.2019 00:00:00 26,7 26,1 0 0 N 1018,1 16 -
17.07.2019 23:00:00 26,7 26,1 5 3 S 1017,9 16 -
17.07.2019 22:00:00 26,7 26,1 8 4 S 1017,6 16 -
17.07.2019 21:00:00 26,7 26,1 9 5 S 1017,4 16 -
17.07.2019 20:00:00 28,9 26,1 11 6 S 1017,4 16 -
17.07.2019 19:00:00 30,0 25,6 15 8 SSW 1017,4 16 -
17.07.2019 18:00:00 31,7 25,6 16 9 SW 1017,6 16 -
17.07.2019 17:00:00 32,2 26,1 16 9 S 1017,9 16 -
17.07.2019 16:00:00 32,2 25,6 16 9 S 1018,5 16 -
17.07.2019 15:00:00 32,8 25,6 21 11 S 1019,8 16 -

tt = temperature
td = dewpoint
ff = wind speed
dd = wind direction
ppp = reduced air pressure
vv = visibility
rr = precipitation

Next stations